Chippewa, MI

10:55 AM EST on December 13, 2019 (GMT -0500)
Chippewa County International

Weather History for KCIU - October, 2019

Change the Weather History Date:

Thursday, October 17, 2019

  Actual Average Record
Temperature  
Mean Temperature 40 °F -  
Max Temperature 46 °F 54 °F 69 °F (1998)
Min Temperature 33 °F 35 °F 24 °F (2015)
Degree Days  
Heating Degree Days 24    
Moisture  
Dew Point 33 °F    
Average Humidity 73    
Maximum Humidity 96    
Minimum Humidity 63    
Precipitation  
Precipitation 0.00 in - - ()
Sea Level Pressure  
Sea Level Pressure 29.93 in    
Wind  
Wind Speed 12 mph ()    
Max Wind Speed 20 mph    
Max Gust Speed 24 mph    
Visibility 10.0 miles    
Events Rain    
Averages and records for this station are not official NWS values.
T = Trace of Precipitation, MM = Missing Value Source: Averaged Metar Reports

Daily Weather History Graph

Daily Weather History Graph

Search for Another Location

Airport or City:

Astronomy

Oct. 17, 2019 Rise Set
Actual Time 7:57 AM EDT 6:48 PM EDT
Civil Twilight 7:27 AM EDT 7:18 PM EDT
Nautical Twilight 6:52 AM EDT 7:53 PM EDT
Astronomical Twilight 6:17 AM EDT 8:28 PM EDT
Moon 9:08 PM EDT (10/17) 11:38 AM EDT (10/17)
Length of Visible Light 11h 51m
Length of Day
10h 50m
Waning Gibbous, 87% of the Moon is Illuminated
Oct 17
Waning Gibbous
Oct 21
Last Quarter
Oct 27
New
Nov 4
First Quarter
Nov 12
Full

Hourly Weather History & Observations

Time (EDT) Temp. Windchill Dew Point Humidity Pressure Visibility Wind Dir Wind Speed Gust Speed Precip Events Conditions
12:56 AM 41.0 °F 34.3 °F 33.1 °F 73% 29.87 in 10.0 mi North 11.5 mph - N/A   Overcast
1:56 AM 39.9 °F 32.1 °F 32.0 °F 73% 29.86 in 10.0 mi North 13.8 mph 19.6 mph N/A   Mostly Cloudy
2:23 AM 39.2 °F 30.8 °F 30.2 °F 70% 29.84 in 10.0 mi North 15.0 mph 21.9 mph N/A   Partly Cloudy
2:56 AM 39.0 °F 31.0 °F 32.0 °F 76% 29.86 in 10.0 mi NNW 13.8 mph - N/A   Clear
3:56 AM 39.0 °F 31.8 °F 32.0 °F 76% 29.87 in 10.0 mi North 11.5 mph - N/A   Clear
4:56 AM 39.0 °F 31.4 °F 32.0 °F 76% 29.88 in 10.0 mi North 12.7 mph 19.6 mph N/A   Partly Cloudy
5:56 AM 39.0 °F 31.4 °F 30.9 °F 73% 29.89 in 10.0 mi North 12.7 mph - N/A   Partly Cloudy
6:56 AM 39.0 °F 31.8 °F 32.0 °F 76% 29.91 in 10.0 mi North 11.5 mph - N/A   Partly Cloudy
7:12 AM 39.2 °F 33.0 °F 32.0 °F 75% 29.90 in 10.0 mi North 9.2 mph - N/A   Mostly Cloudy
7:56 AM 39.0 °F 32.8 °F 32.0 °F 76% 29.92 in 10.0 mi North 9.2 mph - N/A   Overcast
8:56 AM 39.0 °F 31.4 °F 32.0 °F 76% 29.94 in 10.0 mi NNW 12.7 mph - N/A   Mostly Cloudy
9:34 AM 39.2 °F 30.2 °F 32.0 °F 75% 29.92 in 10.0 mi NW 17.3 mph 20.7 mph N/A   Scattered Clouds
9:56 AM 41.0 °F 32.8 °F 32.0 °F 70% 29.95 in 10.0 mi NNW 16.1 mph 20.7 mph N/A   Clear
10:29 AM 41.0 °F 32.8 °F 32.0 °F 70% 29.94 in 10.0 mi North 16.1 mph 23.0 mph N/A   Mostly Cloudy
10:56 AM 42.1 °F 33.9 °F 32.0 °F 67% 29.96 in 10.0 mi North 17.3 mph - N/A   Mostly Cloudy
11:11 AM 42.8 °F 36.2 °F 33.8 °F 70% 29.94 in 10.0 mi NNW 12.7 mph 19.6 mph N/A   Scattered Clouds
11:23 AM 42.8 °F 35.4 °F 32.0 °F 66% 29.94 in 10.0 mi North 15.0 mph 19.6 mph N/A   Mostly Cloudy
11:56 AM 43.0 °F 36.0 °F 33.1 °F 68% 29.96 in 10.0 mi North 13.8 mph 17.3 mph N/A   Overcast
12:56 PM 45.0 °F 38.9 °F 34.0 °F 65% 29.94 in 10.0 mi NW 12.7 mph 21.9 mph N/A   Mostly Cloudy
1:15 PM 44.6 °F 38.4 °F 33.8 °F 66% 29.92 in 10.0 mi NW 12.7 mph - N/A   Mostly Cloudy
1:28 PM 44.6 °F 37.4 °F 33.8 °F 66% 29.92 in 10.0 mi NW 16.1 mph 20.7 mph N/A   Mostly Cloudy
1:56 PM 46.0 °F 40.6 °F 34.0 °F 63% 29.93 in 10.0 mi NNW 11.5 mph 18.4 mph N/A   Overcast
2:56 PM 45.0 °F 37.9 °F 34.0 °F 65% 29.94 in 10.0 mi NNW 16.1 mph - N/A   Overcast
3:13 PM 46.4 °F 40.4 °F 35.6 °F 66% 29.92 in 10.0 mi NNW 13.8 mph - N/A   Overcast
3:56 PM 45.0 °F 38.9 °F 35.1 °F 68% 29.94 in 10.0 mi NNW 12.7 mph - N/A   Overcast
4:07 PM 44.6 °F 38.1 °F 35.6 °F 71% 29.92 in 10.0 mi NNW 13.8 mph - N/A   Mostly Cloudy
4:14 PM 44.6 °F 36.6 °F 33.8 °F 66% 29.92 in 10.0 mi NNW 19.6 mph - N/A   Mostly Cloudy
4:37 PM 44.6 °F 36.9 °F 33.8 °F 66% 29.92 in 10.0 mi NW 18.4 mph 24.2 mph N/A   Mostly Cloudy
4:56 PM 44.1 °F 37.1 °F 35.1 °F 71% 29.95 in 10.0 mi NW 15.0 mph - N/A   Mostly Cloudy
5:26 PM 44.6 °F 37.4 °F 35.6 °F 71% 29.93 in 10.0 mi NW 16.1 mph 23.0 mph 0.00 in Rain Light Rain
5:47 PM 42.8 °F 35.4 °F 35.6 °F 76% 29.94 in 10.0 mi NW 15.0 mph 23.0 mph 0.00 in Rain Light Rain
5:56 PM 43.0 °F 35.7 °F 36.0 °F 76% 29.97 in 10.0 mi NNW 15.0 mph 23.0 mph 0.00 in Rain Light Rain
6:08 PM 42.8 °F 35.4 °F 35.6 °F 76% 29.95 in 10.0 mi NNW 15.0 mph 20.7 mph 0.00 in Rain Light Rain
6:56 PM 42.1 °F 35.7 °F 35.1 °F 76% 29.99 in 10.0 mi NW 11.5 mph - 0.00 in   Overcast
7:56 PM 42.1 °F 36.1 °F 35.1 °F 76% 30.00 in 10.0 mi NW 10.4 mph - N/A   Overcast
8:56 PM 39.0 °F 34.8 °F 35.1 °F 86% 30.00 in 10.0 mi West 5.8 mph - N/A   Overcast
9:56 PM 37.9 °F 34.4 °F 34.0 °F 86% 30.01 in 10.0 mi WNW 4.6 mph - N/A   Overcast
10:56 PM 35.1 °F - 34.0 °F 96% 30.01 in 10.0 mi Calm Calm - N/A   Scattered Clouds
11:56 PM 33.1 °F - 32.0 °F 96% 30.00 in 10.0 mi Calm Calm - N/A   Partly Cloudy